Regional Weather Roundup
Issued by NWS

Home | Current Version | Previous Version | Text Only | Print | Product List | Glossary Off
Versions: 1 2 3 4 5 6 7 8 9 10 11 12 13 14 15 16 17 18 19 20 21 22 23 24 25 26 27 28 29 30 31 32 33 34 35 36 37 38 39 40 41 42 43 44 45 46 47 48 49 50

000
ASUS43 KIND 192209
RWRIN

WEATHER ROUNDUP FOR INDIANA
NATIONAL WEATHER SERVICE INDIANAPOLIS IN
600 PM EDT SUN APR 19 2015

NOTE: "FAIR" INDICATES FEW OR NO CLOUDS BELOW 12,000 FEET WITH NO
SIGNIFICANT WEATHER AND/OR OBSTRUCTIONS TO VISIBILITY.

* - STATION DOES NOT REPORT WEATHER SUCH AS PRECIPITATION OR FOG.

+ - STATION NOT QUALITY CONTROLLED BY THE NATIONAL WEATHER SERVICE.
    USE DATA WITH CAUTION...ESPECIALLY DEWPOINT AND RELATIVE
    HUMIDITY OBSERVATIONS.

INZ001>003-010>013-019-020-192300-
NORTHWEST INDIANA

CITY           SKY/WX    TMP DP  RH WIND       PRES   REMARKS
GARY /AIRPORT/ RAIN      57  50  77 E7        29.52F
KNOX *+        CLOUDY    54  46  76 E18       29.50F
LA PORTE +     LGT RAIN  55  53  92 E17       29.53F
MICHIGAN CITY+ RAIN      54  50  87 E7G17     29.52F
MONTICELLO +   LGT RAIN  55  55  99 E12       29.46F
RENSSELAER +   RAIN      54  54 100 E15G22    29.47F
VALPARAISO     RAIN      54  52  93 E16       29.51F FOG

$$

LMZ046-743>745-192300-
SOUTHERN LAKE MICHIGAN

STATION/POSITION TIME  TEMP WIND        PRES
                       AIR  DIR/SP/G
                 (UTC) (F)  (DEG/KT/KT) (MB)
BURNS HARBOR     2200   52   80/ 10/ 13 1000.3F
MICHIGAN CITY    2200   54   60/ 13/ 19   N/A
4NW MICH CITY    2200   50  100/ 10/ 12   N/A

$$

INZ004-005-014>016-021>024-192300-
NORTH CENTRAL INDIANA

CITY           SKY/WX    TMP DP  RH WIND       PRES   REMARKS
ELKHART        LGT RAIN  54  48  82 E16G22    29.56F
GOSHEN         RAIN      52  49  89 E16G24    29.55F FOG
LOGANSPORT +   RAIN      54  52  94 NE7       29.48F
PERU/GRISSOM   RAIN      54  54 100 NE17      29.44F FOG
ROCHESTER +    LGT RAIN  54  54 100 E13G23    29.50F
SOUTH BEND     RAIN      54  49  83 E13G22    29.55F
WARSAW +       HVY RAIN  50  50 100 E18G26    29.52F

$$

INZ006>009-017-018-025>027-192300-
NORTHEAST INDIANA

CITY           SKY/WX    TMP DP  RH WIND       PRES   REMARKS
ANGOLA *+      PTSUNNY   48  46  93 E13       29.59F
AUBURN +       LGT RAIN  50  46  87 E17       29.57F
FORT WAYNE     HVY RAIN  52  50  93 NE15      29.53F FOG
HUNTINGTON +   RAIN      51  48  89 NE10G21   29.50F

$$

INZ028-029-035-036-043>045-051>053-192300-
WEST CENTRAL INDIANA

CITY           SKY/WX    TMP DP  RH WIND       PRES   REMARKS
CRAWFORDSVL +  DRIZZLE   58  55  90 E6        29.44F
GREENCASTLE +  CLOUDY    61  55  82 E5        29.44F
LAFAYETTE      LGT RAIN  57  56  96 E10       29.44F FOG
TERRE HAUTE    CLOUDY    63  61  93 SE8       29.42F

$$

INZ030>032-037>040-046>048-054>057-064-065-192300-
CENTRAL INDIANA

CITY           SKY/WX    TMP DP  RH WIND       PRES   REMARKS
CP ATTERBURY + CLOUDY    64  63  94 SW5       29.44F
COLUMBUS       CLOUDY    64  63  94 S9        29.44F
FISHERS *+     CLOUDY    61  61 100 SE9       29.42F
FRANKFORT +    LGT RAIN  59  59 100 N9        29.46F
GREENWOOD *+   CLOUDY    63  61  94 SW6       29.44F
INDIANAPOLIS   CLOUDY    61  59  93 NW7       29.41F FOG
-EAGLE CREEK   CLOUDY    61  60  97 NW5       29.42F
KOKOMO *+      CLOUDY    55  52  88 E20       29.44F
MARION +       LGT RAIN  56  56  99 NE14      29.45F
MT COMFORT *+  CLOUDY    63 N/A N/A SE13      29.43F
SHELBYVILLE    LGT RAIN  66  62  87 S17G23    29.43F
ZIONSVILLE +   RAIN      60  57  91 NW5       29.44F

$$

INZ033-034-041-042-049-050-058-059-192300-
EAST CENTRAL INDIANA

CITY           SKY/WX    TMP DP  RH WIND       PRES   REMARKS
MUNCIE         LGT RAIN  62  60  93 SE15      29.43F FOG

$$

INZ060-061-067>069-081>083-085>088-192300-
SOUTHWEST INDIANA

CITY           SKY/WX    TMP DP  RH WIND       PRES   REMARKS
EVANSVILLE     CLOUDY    68  65  90 S7        29.44F FOG
HUNTINGBURG *+ CLOUDY    66  61  82 S10       29.46F
WASHINGTON +   CLOUDY    67  63  87 S12       29.43F

$$

INZ062-063-066-070>080-084-089>092-192300-
SOUTH CENTRAL AND SOUTHEAST INDIANA

CITY           SKY/WX    TMP DP  RH WIND       PRES   REMARKS
BEDFORD +      CLOUDY    64  61  88 S5        29.45
BLOOMINGTON    CLOUDY    64  61  90 SE7       29.44F
MADISON *+     CLOUDY    68  63  83 S10G16    29.49S
NORTH VERNON + CLOUDY    66  66 100 S12       29.46F

$$




USA.gov is the U.S. government's official web portal to all federal, state and local government web resources and services.